Bowling Green, KY

8:27 PM CST on February 24, 2018 (GMT -0600)
Bowling Green-Warren County Regional

Weather History for KBWG - March, 2011

Change the Weather History Date:

Tuesday, March 8, 2011

  Actual Average Record
Temperature  
Mean Temperature 49 °F 46 °F  
Max Temperature 58 °F 57 °F 82 °F (1974)
Min Temperature 39 °F 35 °F 11 °F (1943)
Degree Days  
Heating Degree Days 16 19  
Month to date heating degree days 134 162  
Since 1 July heating degree days 3460 3360  
Cooling Degree Days 0 0  
Month to date cooling degree days 0 0  
Year to date cooling degree days 0 0  
Moisture  
Dew Point 37 °F    
Average Humidity 61    
Maximum Humidity 86    
Minimum Humidity 36    
Precipitation  
Precipitation 0.50 in 0.14 in 2.63 in (1964)
Month to date precipitation 2.13 1.09  
Year to date precipitation 10.26 8.66  
Snow  
Snow 0.00 in 0.10 in 3.00 in (2008)
Month to date snowfall 0.0 0.3  
Since 1 July snowfall 21.2 8.1  
Snow Depth 0.00 in    
Sea Level Pressure  
Sea Level Pressure 30.11 in    
Wind  
Wind Speed 7 mph (ESE)    
Max Wind Speed 17 mph    
Max Gust Speed 21 mph    
Visibility 8 miles    
Events Rain    
T = Trace of Precipitation, MM = Missing Value Source: NWS Daily Summary

Daily Weather History Graph

Daily Weather History Graph

Search for Another Location

Airport or City:

Trip Planner

Search our weather history database for the weather conditions in past years. The results will help you decide how hot, cold, wet, or windy it might be!

Date:

Astronomy

Mar. 08, 2011 Rise Set
Actual Time 6:07 AM CST 5:46 PM CST
Civil Twilight 5:41 AM CST 6:12 PM CST
Nautical Twilight 5:11 AM CST 6:42 PM CST
Astronomical Twilight 4:41 AM CST 7:12 PM CST
Moon 7:33 AM CST (3/8) 9:36 PM CST (3/8)
Length of Visible Light 12h 31m
Length of Day
11h 39m
Waxing Crescent, 13% of the Moon is Illuminated
Mar 8
Waxing Crescent
Mar 12
First Quarter
Mar 19
Full
Mar 26
Last Quarter
Apr 3
New

Hourly Weather History & Observations

Time (CST) Temp. Windchill Dew Point Humidity Pressure Visibility Wind Dir Wind Speed Gust Speed Precip Events Conditions
12:53 AM 39.9 °F 37.8 °F 30.9 °F 70% 30.17 in 10.0 mi NE 3.5 mph - N/A   Partly Cloudy
1:53 AM 39.9 °F 37.8 °F 32.0 °F 73% 30.18 in 10.0 mi NE 3.5 mph - N/A   Mostly Cloudy
2:53 AM 39.0 °F 35.7 °F 32.0 °F 76% 30.18 in 10.0 mi East 4.6 mph - N/A   Clear
3:53 AM 39.0 °F - 32.0 °F 76% 30.19 in 10.0 mi Calm Calm - N/A   Clear
4:53 AM 39.9 °F 37.8 °F 32.0 °F 73% 30.20 in 10.0 mi East 3.5 mph - N/A   Partly Cloudy
5:53 AM 39.9 °F 36.7 °F 33.1 °F 77% 30.19 in 10.0 mi East 4.6 mph - N/A   Mostly Cloudy
6:53 AM 41.0 °F 35.8 °F 34.0 °F 76% 30.19 in 10.0 mi East 8.1 mph - N/A   Mostly Cloudy
7:53 AM 44.1 °F 40.1 °F 34.0 °F 68% 30.19 in 10.0 mi East 6.9 mph - N/A   Mostly Cloudy
8:53 AM 48.0 °F - 34.0 °F 58% 30.20 in 10.0 mi East 5.8 mph - N/A   Clear
9:53 AM 50.0 °F - 34.0 °F 54% 30.21 in 10.0 mi East 4.6 mph - N/A   Scattered Clouds
10:53 AM 52.0 °F - 33.1 °F 49% 30.18 in 10.0 mi ESE 8.1 mph - N/A   Scattered Clouds
11:53 AM 55.9 °F - 32.0 °F 40% 30.14 in 10.0 mi SSE 15.0 mph - N/A   Mostly Cloudy
12:53 PM 55.9 °F - 30.0 °F 37% 30.13 in 10.0 mi SE 10.4 mph - N/A   Mostly Cloudy
1:53 PM 57.0 °F - 32.0 °F 39% 30.10 in 10.0 mi SE 5.8 mph - N/A   Overcast
2:53 PM 57.0 °F - 30.0 °F 36% 30.09 in 10.0 mi SE 6.9 mph - N/A   Overcast
3:53 PM 55.9 °F - 33.1 °F 42% 30.08 in 10.0 mi ESE 8.1 mph - N/A   Overcast
4:53 PM 53.1 °F - 37.0 °F 55% 30.08 in 10.0 mi SSE 9.2 mph - 0.01 in   Overcast
5:24 PM 50.0 °F - 41.0 °F 71% 30.13 in 2.5 mi South 9.2 mph - 0.09 in Rain Heavy Rain
5:31 PM 48.2 °F - 42.8 °F 82% 30.14 in 3.0 mi SSE 4.6 mph - 0.11 in Rain Rain
5:53 PM 46.9 °F - 44.1 °F 90% 30.12 in 5.0 mi East 5.8 mph - 0.18 in Rain Light Rain
6:53 PM 46.9 °F - 43.0 °F 86% 30.06 in 10.0 mi East 9.2 mph - 0.00 in Rain Light Rain
7:53 PM 46.9 °F - 43.0 °F 86% 30.04 in 9.0 mi SE 9.2 mph - 0.02 in Rain Light Rain
8:01 PM 46.4 °F 41.1 °F 42.8 °F 87% 30.03 in 6.0 mi SE 11.5 mph - 0.00 in Rain Light Rain
8:15 PM 46.4 °F 40.4 °F 42.8 °F 87% 30.01 in 4.0 mi ESE 13.8 mph - 0.02 in Rain Light Rain
8:53 PM 46.9 °F - 44.1 °F 90% 30.02 in 10.0 mi SE 11.5 mph - 0.02 in   Overcast
9:53 PM 48.0 °F - 44.1 °F 86% 29.99 in 8.0 mi SE 5.8 mph - 0.03 in Rain Light Rain
10:53 PM 48.0 °F - 45.0 °F 89% 29.99 in 3.0 mi NE 4.6 mph - 0.08 in Rain Light Rain
11:08 PM 48.2 °F - 44.6 °F 87% 29.99 in 4.0 mi Variable 4.6 mph - 0.05 in Rain Rain
11:53 PM 48.9 °F - 46.9 °F 93% 29.94 in 5.0 mi ESE 5.8 mph - 0.15 in Rain Rain